Theta_e
348 355 363 359 358 358 358 360 360 360 363 362 361 361 361 362 362 362 362 362 361 361 361 362 361 361 362 361 362 362 362 362 361 361 361 360 360 361 361 361 361 356 361
353 357 364 360 358 359 360 361 361 362 363 362 360 361 361 361 362 362 362 361 361 361 361 362 361 361 361 361 360 360 361 362 362 360 360 361 361 360 360 361 361 357 361
355 357 360 363 359 361 362 361 360 361 360 361 360 360 360 361 362 361 362 362 361 362 361 361 361 359 359 359 358 359 359 363 362 361 360 351 353 360 360 360 361 361 361
356 357 357 363 363 362 361 361 362 362 361 361 359 360 359 361 361 363 363 363 362 362 363 362 361 361 360 359 358 361 361 361 360 359 352 349 353 356 358 359 360 361 362
356 357 357 363 363 361 363 362 362 361 361 361 361 360 360 361 362 361 363 362 362 362 361 361 361 361 360 360 360 360 361 360 360 354 349 349 348 355 355 357 359 360 360
355 357 361 363 362 364 362 362 362 361 360 360 362 360 360 361 361 363 363 362 362 362 361 361 361 361 359 358 357 359 359 360 356 349 351 354 349 359 359 354 356 358 360
354 357 357 365 364 362 362 362 361 360 360 360 362 361 362 362 362 363 363 363 362 363 361 361 361 361 359 358 357 357 358 360 348 348 348 349 351 359 358 356 355 355 358
355 357 358 363 363 362 363 363 362 361 361 361 362 362 363 362 363 363 362 361 362 362 362 362 361 360 358 357 358 361 360 359 351 348 351 350 357 360 359 358 358 355 354
355 355 356 355 358 363 363 363 363 362 362 363 363 363 363 363 363 363 363 363 363 363 362 362 361 360 358 358 357 361 361 358 348 350 352 352 360 360 355 355 356 359 354
353 354 352 351 352 354 356 363 363 362 364 364 363 363 363 363 363 362 364 363 362 363 361 361 360 359 358 356 358 361 361 358 349 350 352 353 361 359 358 357 357 359 354
351 349 349 352 348 351 353 358 362 363 363 363 362 363 363 357 358 357 360 362 362 360 358 360 359 359 357 358 357 358 359 349 349 350 352 359 361 359 359 358 358 358 355
344 347 349 349 347 351 356 353 352 355 355 353 354 353 352 352 355 356 359 361 361 360 360 358 359 361 351 345 349 354 348 349 349 349 352 361 362 357 355 356 358 358 358
345 348 348 347 345 347 349 350 351 352 351 350 350 348 346 349 346 350 352 355 355 356 351 353 351 346 343 342 346 345 349 346 349 350 356 361 361 358 356 353 357 358 358
343 345 345 345 342 342 347 348 348 348 350 349 348 348 345 345 344 348 351 351 349 346 345 346 344 339 340 341 344 345 348 345 347 347 354 361 361 359 358 357 355 357 358
338 339 343 342 341 343 344 346 346 346 349 349 348 347 349 346 343 349 348 349 344 340 344 342 343 341 338 340 342 344 344 346 346 348 354 359 361 361 358 358 360 356 356
338 338 342 342 342 344 344 346 345 344 346 348 348 347 348 347 343 344 343 345 345 339 342 343 343 342 339 339 339 342 342 345 347 349 353 355 360 360 359 359 358 358 357
340 340 341 343 344 344 345 347 345 343 345 350 349 347 346 347 344 341 343 344 343 338 341 342 343 343 338 340 340 342 344 345 347 347 351 350 356 360 359 359 360 359 359
336 338 342 348 345 346 344 345 347 348 347 348 350 347 345 346 344 342 342 341 341 344 343 344 343 341 338 338 338 340 344 344 345 346 346 348 348 351 356 359 361 360 358
333 334 336 344 344 345 342 344 346 346 348 352 350 347 346 348 347 343 343 342 344 344 344 345 341 340 339 339 340 341 342 342 346 347 344 345 346 348 346 352 358 360 359
334 334 333 342 342 343 342 342 341 339 344 351 352 349 348 348 349 346 344 342 343 341 341 343 343 341 339 339 344 345 342 342 343 343 343 344 342 345 344 345 351 355 360
336 337 333 337 338 343 341 338 336 332 344 347 348 351 349 349 350 345 343 342 344 340 340 341 344 342 339 341 337 337 338 343 342 342 342 341 341 342 341 342 343 348 352
335 337 335 339 339 342 342 340 340 340 344 346 351 352 350 349 350 345 343 342 341 340 339 342 344 341 339 340 336 332 329 333 339 342 342 341 340 341 340 340 340 343 346
333 337 334 341 341 342 343 341 343 345 345 343 346 349 351 349 349 348 346 343 341 340 340 340 344 341 336 338 340 334 326 326 329 337 340 341 340 339 340 340 339 341 344
332 336 335 340 343 341 342 340 338 338 339 342 341 347 347 350 349 349 348 347 344 342 340 342 344 345 342 336 339 341 337 332 328 327 335 339 341 340 339 340 341 342 344
333 333 333 335 338 340 340 340 339 338 339 341 342 344 346 346 347 347 345 344 347 345 345 344 344 342 344 342 339 337 335 335 334 329 327 331 337 339 340 341 341 342 343
332 333 334 331 329 334 340 339 338 339 340 341 340 340 343 343 343 338 339 341 342 346 348 348 348 346 342 344 343 339 337 334 332 332 329 329 331 336 340 342 342 341 342
Wind_Speed
5 6 11 12 13 12 13 14 14 15 14 15 16 16 16 15 15 15 14 14 14 14 15 15 16 18 19 19 19 19 19 19 18 18 19 17 18 19 19 18 17 13 18
9 7 13 12 12 12 11 12 13 13 13 14 15 14 14 14 14 14 14 14 14 16 16 16 16 17 18 17 17 18 18 16 16 17 17 18 18 17 17 17 17 15 17
10 8 10 12 12 12 11 11 11 11 12 12 13 13 13 12 13 13 13 14 14 15 18 18 17 17 16 16 16 17 16 14 14 15 16 5 9 16 16 16 17 17 17
11 6 7 12 13 12 12 10 9 10 10 11 13 13 11 11 12 11 13 13 13 14 15 16 16 16 15 16 15 15 15 14 15 16 5 5 8 15 14 15 16 17 17
10 7 9 13 13 11 12 10 9 9 9 10 12 13 11 11 12 13 14 12 12 13 14 14 14 14 15 14 14 13 14 14 14 7 5 6 4 12 14 12 14 15 15
9 7 13 15 13 11 10 10 10 9 10 11 12 12 12 13 13 12 15 13 14 12 11 13 13 14 13 14 12 11 9 12 11 5 5 7 4 12 14 14 12 12 14
8 8 10 13 13 12 11 10 9 8 10 14 13 13 12 13 14 14 13 12 12 13 12 12 12 12 11 10 9 9 8 10 6 5 5 5 6 10 13 14 13 12 11
9 8 8 13 13 12 11 12 10 10 15 17 15 14 13 13 14 15 13 12 13 11 11 11 11 10 9 7 5 6 10 15 7 6 5 4 8 13 13 12 12 13 12
8 6 5 5 10 13 12 12 11 13 17 16 16 14 13 13 13 13 12 11 12 11 10 10 10 9 8 6 4 8 14 12 6 4 6 4 9 11 11 11 10 13 11
6 5 5 2 4 5 5 12 13 13 15 14 15 14 13 13 12 11 10 11 11 11 9 9 10 10 8 7 7 11 13 13 5 4 3 3 9 11 11 11 10 12 11
5 2 4 5 4 5 5 7 11 13 13 13 12 13 9 3 5 7 7 11 10 9 8 7 8 8 10 10 7 8 10 3 4 3 2 7 9 11 11 10 10 11 13
7 4 3 4 5 5 4 4 4 4 3 3 4 5 3 4 3 5 7 8 9 7 6 6 8 10 7 4 3 5 3 4 2 3 2 7 7 11 9 7 9 9 10
10 6 6 5 5 5 4 3 2 2 2 1 3 5 3 3 3 3 2 2 2 6 3 3 5 3 4 3 3 3 3 4 2 2 4 6 7 12 11 10 9 10 10
12 9 5 5 6 5 3 3 3 3 3 2 3 5 3 2 3 3 2 3 2 2 4 3 2 4 4 4 3 1 2 3 2 2 4 8 7 7 8 10 10 7 10
12 10 9 7 6 5 5 3 3 2 2 3 4 4 3 3 2 3 2 3 2 1 2 2 3 3 4 1 1 3 2 1 3 2 1 11 8 9 10 9 11 11 9
11 9 10 9 6 6 5 5 3 3 3 3 3 3 4 3 4 3 3 3 3 2 2 1 1 2 3 2 3 3 3 2 1 3 3 3 10 8 8 9 8 10 11
10 7 8 6 6 6 5 4 4 3 3 4 4 5 5 4 4 4 3 3 3 3 2 1 2 1 2 2 3 4 3 3 3 4 3 3 5 12 11 10 10 9 10
8 8 8 8 6 6 6 5 3 1 3 4 4 4 5 5 4 3 3 3 3 3 2 1 1 1 2 3 3 3 2 4 4 4 3 2 2 3 8 12 10 9 10
7 8 7 6 7 6 5 4 3 2 1 2 4 4 5 4 5 4 4 4 3 2 1 2 1 2 1 1 3 3 3 4 3 2 4 5 4 4 3 7 11 11 12
7 7 7 6 7 5 3 3 1 1 0 2 3 4 6 5 6 4 3 4 4 3 3 1 1 1 1 1 2 3 1 2 1 2 3 4 4 4 4 5 4 5 12
7 6 9 7 6 5 2 2 1 2 1 0 3 6 7 5 6 5 4 4 3 4 3 3 1 1 2 2 1 1 1 1 3 2 2 3 4 5 5 5 3 3 3
13 9 7 8 7 6 3 2 2 2 1 2 2 5 5 6 6 5 5 5 5 3 3 3 3 3 2 3 2 1 1 3 3 5 3 5 6 4 6 6 6 5 4
11 10 8 8 9 7 6 2 2 1 1 1 2 2 6 4 2 3 4 3 3 3 3 3 3 5 3 3 5 4 2 4 1 1 6 5 6 5 5 6 7 7 6
12 10 9 9 10 7 7 4 4 3 3 2 1 1 2 6 6 7 7 7 7 4 5 5 4 4 3 4 2 5 3 3 2 3 1 5 7 7 8 5 7 7 7
12 10 11 10 8 7 7 7 5 5 4 2 1 2 3 5 6 6 5 6 6 6 7 7 5 7 5 3 3 2 1 2 2 2 3 3 2 4 6 7 7 6 5
12 10 10 12 8 8 8 8 9 8 7 3 3 3 4 3 4 5 7 7 4 4 6 6 7 6 6 4 3 3 3 3 3 3 3 4 4 3 4 6 7 7 7
Wind_Direction
172 170 156 143 133 125 120 118 116 116 113 110 107 106 111 115 113 114 112 111 113 114 112 109 113 113 116 116 116 110 109 105 104 107 104 103 99 97 103 103 101 103 107
136 161 156 144 139 131 122 120 120 119 117 113 106 102 106 113 115 119 116 115 111 110 112 115 107 118 114 117 116 117 111 108 114 109 106 103 95 96 101 105 107 108 108
140 158 146 147 144 138 128 123 122 118 116 115 109 105 105 117 117 123 119 113 115 116 119 115 118 114 115 115 117 115 113 111 110 104 96 85 97 101 104 110 109 110 109
139 141 145 147 149 142 133 134 128 123 123 123 117 113 114 121 120 121 124 119 122 114 112 114 116 117 121 122 124 120 111 114 114 106 85 79 101 107 99 104 107 108 108
130 137 150 149 146 147 137 129 126 125 127 131 128 125 121 121 118 129 126 124 116 118 120 119 119 124 124 125 127 124 116 119 119 101 90 96 90 116 114 101 102 106 114
130 139 151 153 150 139 133 125 127 128 129 135 135 129 126 126 124 128 128 132 123 121 120 122 126 121 124 125 132 141 146 125 109 86 87 107 96 123 119 115 114 112 114
136 140 153 153 140 139 127 126 119 122 141 139 137 134 131 129 125 128 127 128 129 126 126 128 128 125 128 132 142 160 168 143 126 102 102 105 112 124 128 121 125 123 112
136 145 153 152 144 135 130 124 122 119 132 138 141 136 131 126 130 129 136 132 127 132 126 129 133 132 129 121 111 147 163 143 122 113 113 117 131 142 127 133 134 129 123
130 130 133 155 141 137 131 126 122 116 127 136 136 135 132 132 133 137 136 136 137 135 135 138 138 133 126 105 78 128 135 133 112 118 133 126 146 142 138 138 141 129 129
134 132 130 145 119 119 127 133 129 127 130 134 136 137 139 140 138 142 144 149 142 140 143 139 140 135 124 98 94 128 139 141 125 129 126 146 139 146 140 148 141 133 135
120 132 155 141 154 137 126 143 138 138 142 141 142 144 128 123 127 118 155 148 147 141 138 137 134 117 99 87 96 126 125 113 125 131 123 155 158 147 152 159 156 155 141
152 178 191 151 171 154 144 126 139 142 72 87 120 108 79 97 127 142 155 149 130 130 128 148 125 105 86 69 37 77 96 110 111 123 127 156 167 135 147 158 160 157 157
169 178 183 188 186 167 145 150 133 118 115 151 114 83 108 97 57 51 45 92 106 108 63 70 79 65 83 86 73 90 107 119 122 133 163 170 174 156 163 160 176 173 157
174 186 185 195 186 187 148 163 163 151 166 164 151 132 156 151 141 122 103 102 89 114 116 100 82 108 90 73 68 127 53 124 142 165 191 180 170 162 161 167 173 174 166
177 189 192 194 189 182 166 178 167 193 204 191 158 172 181 175 177 127 136 107 145 102 120 128 146 143 128 90 99 133 79 133 173 190 201 181 168 171 183 186 177 179 181
174 191 194 205 186 173 170 182 190 196 220 199 156 175 184 196 158 147 140 153 166 200 120 170 236 188 146 185 159 194 171 236 183 205 181 202 166 174 199 187 194 181 187
180 173 194 193 176 177 187 179 187 200 199 212 167 171 187 186 166 153 167 163 195 188 201 188 259 73 178 179 177 195 191 192 204 208 197 190 190 195 193 203 192 198 202
145 177 190 184 181 173 170 159 177 244 193 200 138 148 175 176 186 190 181 196 182 188 215 275 152 164 184 182 190 205 222 221 204 215 182 189 197 184 206 205 202 205 210
177 167 185 170 174 175 151 133 161 190 32 143 143 165 178 185 203 197 189 189 177 142 198 202 146 133 158 222 224 221 237 233 228 228 184 205 185 197 203 222 203 206 211
175 177 188 178 159 143 126 132 162 246 244 154 161 170 185 181 199 189 192 184 168 176 192 219 235 126 155 232 299 266 231 231 185 255 226 199 194 206 203 218 221 215 217
187 177 186 161 161 147 150 169 216 235 170 239 185 186 206 179 189 189 178 186 181 203 217 184 135 161 248 145 58 277 82 288 259 225 230 217 206 203 211 210 226 222 229
185 188 164 169 168 188 173 183 150 207 162 225 207 189 190 201 187 183 186 192 192 191 200 216 175 177 200 177 162 124 27 333 252 216 204 213 218 204 213 210 215 221 218
181 182 169 163 170 185 178 121 49 353 28 342 8 229 216 193 161 160 185 173 206 219 192 201 189 189 187 225 185 147 139 224 284 164 206 209 213 208 225 211 212 216 217
199 176 168 173 172 182 168 162 167 204 216 226 207 268 132 157 171 174 168 175 190 195 206 204 210 206 179 202 187 203 201 146 181 328 214 218 214 211 216 218 217 209 208
192 180 171 176 179 169 176 177 184 210 231 216 104 156 206 204 183 174 173 170 183 193 214 200 195 204 196 203 186 160 130 162 171 150 270 291 232 217 208 207 208 207 204
190 185 174 178 192 182 182 194 197 211 219 207 156 208 219 242 237 195 232 212 183 208 211 204 202 199 202 206 206 187 174 175 181 165 219 250 255 241 208 208 198 203 205